This is the latest recevied weather packets stored in our database for station/object WW3TRG. If no packets are shown the sender has not sent any weather packets the latest 10 day(s).
| Time | Temp. | Humidity | Pressure | Rain* | Wind** | Luminosity | Snow |
|---|---|---|---|---|---|---|---|
| 1778128057 | 10.56° C | 83% | 1009.2 hPa | 0 mm | - | 0 W/m² | - |
| 1778127752 | 10.56° C | 85% | 1009.3 hPa | 0 mm | - | 0 W/m² | - |
| 1778127450 | 10.56° C | 84% | 1009.2 hPa | 0 mm | - | 0 W/m² | - |
| 1778127147 | 10.56° C | 84% | 1009.3 hPa | 0 mm | - | 0 W/m² | - |
| 1778126844 | 10.56° C | 87% | 1009.4 hPa | 0 mm | - | 0 W/m² | - |
| 1778126540 | 10.56° C | 87% | 1009.5 hPa | 0 mm | - | 0 W/m² | - |
| 1778126236 | 10.56° C | 86% | 1009.9 hPa | 0 mm | - | 0 W/m² | - |
| 1778125931 | 11.11° C | 84% | 1009.5 hPa | 0 mm | - | 0 W/m² | - |
| 1778125629 | 11.11° C | 85% | 1009.7 hPa | 0 mm | - | 0 W/m² | - |
| 1778125326 | 10.56° C | 86% | 1009.7 hPa | 0 mm | - | 0 W/m² | - |
| 1778125025 | 10.56° C | 85% | 1010 hPa | 0 mm | - | 0 W/m² | - |
| 1778124721 | 10.56° C | 87% | 1009.5 hPa | 0 mm | - | 0 W/m² | - |
| 1778124419 | 11.11° C | 87% | 1009.4 hPa | 0 mm | - | 0 W/m² | - |
| 1778124114 | 11.11° C | 85% | 1009.2 hPa | 0 mm | - | 0 W/m² | - |
| 1778123812 | 11.11° C | 85% | 1009.1 hPa | 0 mm | - | 0 W/m² | - |
| 1778123508 | 11.11° C | 88% | 1009.7 hPa | 0 mm | - | 0 W/m² | - |
| 1778123205 | 11.11° C | 87% | 1009.4 hPa | 0 mm | - | 0 W/m² | - |
| 1778122903 | 11.11° C | 86% | 1009.3 hPa | 0 mm | - | 0 W/m² | - |
| 1778122600 | 11.11° C | 87% | 1009.4 hPa | 0 mm | - | 0 W/m² | - |
| 1778122297 | 11.11° C | 89% | 1009.3 hPa | 0 mm | - | 0 W/m² | - |
| 1778121995 | 11.11° C | 89% | 1009.3 hPa | 0 mm | - | 0 W/m² | - |
| 1778121692 | 11.11° C | 90% | 1009.1 hPa | 0 mm | - | 0 W/m² | - |
| 1778121387 | 11.11° C | 91% | 1009.3 hPa | 0 mm | - | 0 W/m² | - |
| 1778121085 | 11.67° C | 90% | 1009.7 hPa | 0 mm | - | 0 W/m² | - |
| 1778120781 | 11.67° C | 91% | 1009.7 hPa | 0 mm | - | 0 W/m² | - |
* Rain latest hour (hover to see other rain measurements)
** Current wind speed in m/s (hover to see current wind gust speed)